星链-5671 (STARLINK-5671 )

导读

STARLINK-5671是美国SpaceX公司星链(Starlink)星座的一员,于2023年1月26日发射升空。星链项目旨在构建全球卫星互联网星座,为全球偏远地区、海洋航空等场景提供低延迟宽带网络服务。该卫星入轨后,进一步扩充了星链星座的卫星规模,提升了星座的覆盖能力与服务容量,助力SpaceX实现全球卫星互联网组网的目标。

Basic Information
目录编号:
55339
目录名称:
STARLINK-5671
国际标识:
2023-013J
轨道中心:
EARTH
卫星名称:
星链-5671
卫星全名:
星链-5671 (STARLINK-5671 )
卫星状态:
在轨 (已飞行1325 天)
发射日期:
2023-01-26 UTC
国别 :
美国 (US)
星等 :
--
This satellite is enrolled in the Space Conjunction Data Service (SCDS) and the current flight risk assessment level is: No High Risk
Orbit Information
数据来源 国际轨道数据 AOE轨道数据
星历时间 2026-09-11T14:34:28+0800
1天前
查看轨道信息
2026-09-10T08:00:00+0800
2天前
查看轨道信息
半长轴 6861.202km 6861.168km
偏心率 0.0000912 0.0000159
轨道倾角 43.003° 43.004°
近地点辐角 266.617° 83.606°
升交点赤经 338.955° 346.155°
平近点角 93.457° 102.555°
近地点 482.439km 482.921km
远地点 483.691km 483.141km
周期 94.267分钟 94.266分钟
每日圈数 15.275748 15.275863
Detailed Information
固有亮度:
5
最大亮度:
2.5
卫星平台:
Starlink v1.5
覆盖范围:
全球
运营商:
太空探索技术公司
运营商所在国:
美国
制造商(研发单位):
太空探索技术公司
制造商所在国:
美国
使用方式:
暂无
Satellite Introduction
星链(Starlink)计划是由太空探索技术公司(SpaceX)提出的一个巨型低轨卫星互联网星座项目,计划在2019年至2024年间在太空搭建由约1.2万颗卫星组成的“星链”网络,其中1584颗将部署在地球上空550千米处的近地轨道,并从2020年开始工作。该卫星仍在工作。
2D Orbit Map
3D Orbit Map
Orbit Altitude Analysis Chart
Orbit Inclination Analysis Chart
Orbit Comprehensive Analysis Chart
View Comprehensive Chart
Conjunction Data List
Event ID Objects TCA Miss Dist (km) Collision Risk Probability Collision Risk Index (CRI) Action
CDM_260913-223705-533906-366021
2026-09-13T
22:37:05+0000
0.673 km
远距离
4.686381E-5 中风险 0.68
CDM_260914-054005-533906-366021
2026-09-14T
05:40:46+0000
0.680 km
远距离
4.558009E-5 中风险 0.68
CDM_260909-225505-533906-697222
2026-09-09T
22:55:35+0000
1.456 km
极远距离
4.202401E-6 低风险 0.47
CDM_260911-061605-533906-366022
2026-09-11T
06:16:40+0000
1.438 km
极远距离
3.730653E-6 低风险 0.46
CDM_260913-215205-533906-431021
2026-09-13T
21:52:24+0000
2.340 km
极远距离
1.655945E-6 低风险 0.39
CDM_260909-212105-533906-697222
2026-09-09T
21:21:26+0000
2.158 km
极远距离
1.428925E-6 低风险 0.38
CDM_260914-001105-533906-366021
2026-09-14T
00:11:14+0000
2.031 km
极远距离
1.418581E-6 低风险 0.38
CDM_260914-071405-533906-366021
2026-09-14T
07:14:55+0000
2.228 km
极远距离
1.160769E-6 低风险 0.36
Miss Distance Evolution Trend with All Objects
Collision Probability Evolution Trend with All Objects